This demonstration page uses our WeatherBlox Daily Observations layout. Learn more.

36.17497, -115.13722

Hourly Observations for November 7, 2019

Temp ( °F °C ) Dew Point ( °F °C ) Humidity (%) Winds ( mph kmh ) Pressure ( in mb ) Visibility ( mi km ) Precip ( " mm )
12:53 am 00:53 Clear 56 13.3 23 -5 28 28 WSW 7 11 30.09 1019 10 16.0934 0 0
1:53 am 01:53 Clear 54 12.2 22 -5.6 29 29 W 6 9 30.11 1020 10 16.0934 0 0
2:53 am 02:53 Clear 54 12.2 22 -5.6 29 29 WNW 3 6 30.11 1020 10 16.0934 0 0
3:53 am 03:53 Clear 59 15 19 -7.2 21 21 WNW 9 15 30.11 1020 10 16.0934 0 0
4:53 am 04:53 Clear 54 12.2 21 -6.1 28 28 N 3 6 30.15 1021 10 16.0934 0 0
5:53 am 05:53 Clear 51 10.6 21 -6.1 31 31 VRB 3 6 30.18 1022 10 16.0934 0 0
6:53 am 06:53 Sunny 53 11.7 22 -5.6 30 30 Calm 30.21 1023 10 16.0934 0 0
7:53 am 07:53 Sunny 60 15.6 21 -6.1 22 22 Calm 30.24 1024 10 16.0934 0 0
8:53 am 08:53 Sunny 64 17.8 22 -5.6 20 20 Calm 30.24 1024 10 16.0934 0 0
9:53 am 09:53 Sunny 71 21.7 19 -7.2 14 14 NE 3 6 30.23 1024 10 16.0934 0 0
10:53 am 10:53 Sunny 72 22.2 18 -7.8 13 13 Calm 30.22 1023 10 16.0934 0 0
11:53 am 11:53 Sunny 74 23.3 16 -8.9 11 11 Calm 30.19 1022 10 16.0934 0 0
12:53 pm 12:53 Sunny 76 24.4 17 -8.3 11 11 undefined N/A 30.17 1022 10 16.0934 0 0
1:53 pm 13:53 Sunny 78 25.6 16 -8.9 9 9 undefined N/A 30.16 1021 10 16.0934 0 0
2:53 pm 14:53 Mostly Sunny 77 25 17 -8.3 10 10 undefined N/A 30.16 1021 N/A 0 0
3:53 pm 15:53 Mostly Sunny 77 25 17 -8.3 10 10 undefined N/A 30.15 1021 10 16.0934 0 0
4:53 pm 16:53 Clear 73 22.8 19 -7.2 13 13 Calm 30.16 1022 10 16.0934 0 0
5:53 pm 17:53 Clear 68 20 22 -5.6 17 17 NW 5 7 30.19 1023 10 16.0934 0 0
6:53 pm 18:53 Clear 63 17.2 23 -5 22 22 NW 7 11 30.21 1023 10 16.0934 0 0
7:53 pm 19:53 Clear 60 15.6 21 -6.1 22 22 NW 7 11 30.22 1023 10 16.0934 0 0
8:53 pm 20:53 Clear 61 16.1 20 -6.7 20 20 W 9 15 30.22 1024 10 16.0934 0 0
9:53 pm 21:53 Clear 61 16.1 20 -6.7 20 20 WSW 3 6 30.23 1024 10 16.0934 0 0
10:53 pm 22:53 Clear 57 13.9 19 -7.2 23 23 WNW 6 9 30.24 1024 10 16.0934 0 0
11:53 pm 23:53 Clear 57 13.9 17 -8.3 21 21 NNW 7 11 30.24 1024 10 16.0934 0 0

Powered by AerisWeather